Starlink 31040

operational
NORAD ID: 58722 Int'l Des: 2024-002 Owner: SPXS Country: US Constellation: starlink
LEOCIRCULAR

关于 Starlink 31040

正在加载描述...

实时位置

正在加载3D地球...

即将过境

高度历史

Altitude vs Time

uPlot chart will show altitude changes over time

两行轨道根数

1 58722U 24002T 25303.84118963 -.00002061 00000-0 -57479-4 0 9992
2 58722 53.1553 113.1542 0000594 84.3191 275.7877 15.30211747102130
Epoch: Oct 30, 2025 • Age: 22 hours

当前状态

高度 475.3 km
速度 7.63 km/s
星下点 8.43°N, 162.25°E
发射日期 Jan 3, 2024
运行时间 1.8 years
类型 internet

技术详情

分类 Payload
质量 730.00 kg
干质量 700.00 kg
总质量 730.00 kg
长度 0.30 m
直径 4.10 m
跨度 29.00 m
形状 Box + pan
制造商 SPXS
平台类型 Starlink V2M
阶段状态 In Orbit
所有者/国家 SPXS/US

大型星座

Loading constellations...